Location: Paddlesworth
(51.1000°N, 1.1333°E)
Time: 14:10:12
(UTC+00:00)

Cosmos 372 Rocket - Pass Details

Date: 11 May 2021
Orbit: 738 x 768 km, 74.1° (Epoch: 19 June)

Event Time Altitude Azimuth Distance (km) Brightness Sun altitude
Exits shadow 23:06:58 43° 171° (S) 1,027 4.2 -20.1°
Maximum altitude 23:08:27 64° 110° (ESE) 820 3.9 -20.1°
Drops below altitude 10° 23:13:29 10° 30° (NNE) 2,258 7.1 -20.3°
Sets 23:15:52 0° 27° (NNE) 3,187 8.1 -20.3°
